(°C)
(°C)
-4°
-4°
-4°
-4°
-4°
-4°
-4°
IJI
IJI
IJI
IJI
IJI
IJI
IJI
(km/h)
8-22
7-16
7-16
8-16
8-17
8-17
8-15
(mm)
0
0
0
0
0
0
0
(%)
0
0
0
0
0
0
0

Podizanje Sunca

/ -24.6°
sun-icon
UV 2
05:56
18:23
Opadajući mesec (198°)
18:51
07:20

METAR za 64.6°S 40.72°I (ULAA)

Vreme Uslovi Temperatura/
Tačka rose
Vetar Vidljivost Prognoza Oblaci Pritisak Promena Neobrađeno
VFR 0°C / -1°C 90º 4kt >10km - Clouds and Visibility OK 1024 No Significant change ULAA 222000Z 09002MPS CAVOK 00/M01 Q1024 R08/CLRD70 NOSIG RMK QFE767/1023
VFR 0°C / -1°C 100º 4kt >10km - Clouds and Visibility OK 1024 No Significant change ULAA 221930Z 10002MPS CAVOK M00/M01 Q1024 R08/CLRD70 NOSIG RMK QFE767/1023
VFR 0°C / -1°C 90º 4kt >10km - Clouds and Visibility OK 1024 No Significant change ULAA 221900Z 09002MPS CAVOK 00/M01 Q1024 R08/CLRD70 NOSIG RMK QFE767/1023
VFR 1°C / -1°C 110º 4kt >10km - Clouds and Visibility OK 1024 No Significant change ULAA 221830Z 11002MPS CAVOK 01/M01 Q1024 R08/CLRD70 NOSIG RMK QFE767/1023
VFR 2°C / 0°C 130º variable 090º to 150º 4kt >10km - Clouds and Visibility OK 1025 No Significant change ULAA 221800Z 13002MPS 090V150 CAVOK 02/M00 Q1025 R08/CLRD70 NOSIG RMK QFE767/1023
VFR 2°C / 0°C 120º 4kt >10km - Clouds and Visibility OK 1025 No Significant change ULAA 221730Z 12002MPS CAVOK 02/00 Q1025 R08/CLRD70 NOSIG RMK QFE767/1023
VFR 2°C / 0°C 100º 4kt >10km - Clouds and Visibility OK 1025 No Significant change ULAA 221700Z 10002MPS CAVOK 02/M00 Q1025 R08/CLRD70 NOSIG RMK QFE768/1024
VFR 2°C / 0°C 120º 4kt >10km - Clouds and Visibility OK 1025 No Significant change ULAA 221630Z 12002MPS CAVOK 02/00 Q1025 R08/CLRD70 NOSIG RMK QFE768/1024
VFR 3°C / 0°C 90º 2kt >10km - Clouds and Visibility OK 1025 No Significant change ULAA 221600Z 09001MPS CAVOK 03/M00 Q1025 R08/CLRD70 NOSIG RMK QFE768/1024
VFR 6°C / 0°C 120º 2kt >10km - Clouds and Visibility OK 1025 No Significant change ULAA 221530Z 12001MPS CAVOK 06/00 Q1025 R26/CLRD70 NOSIG RMK QFE767/1023
VFR 7°C / 0°C variable 2kt >10km - Clouds and Visibility OK 1025 No Significant change ULAA 221500Z VRB01MPS CAVOK 07/00 Q1025 R26/CLRD70 NOSIG RMK QFE767/1023
VFR 9°C / 0°C 140º variable 110º to 200º 4kt >10km - Clouds and Visibility OK 1025 No Significant change ULAA 221430Z 14002MPS 110V200 CAVOK 09/M00 Q1025 R26/CLRD70 NOSIG RMK QFE767/1023
VFR 9°C / -1°C 130º variable 090º to 170º 4kt >10km - Clouds and Visibility OK 1025 No Significant change ULAA 221400Z 13002MPS 090V170 CAVOK 09/M01 Q1025 R08/CLRD70 NOSIG RMK QFE768/1024
VFR 10°C / -1°C 150º variable 100º to 190º 6kt >10km - Clouds and Visibility OK 1026 No Significant change ULAA 221330Z 15003MPS 100V190 CAVOK 10/M01 Q1026 R08/CLRD70 NOSIG RMK QFE768/1024
VFR 11°C / -1°C 140º variable 090º to 170º 8kt >10km - Clouds and Visibility OK 1026 No Significant change ULAA 221300Z 14004MPS 090V170 CAVOK 11/M01 Q1026 R08/CLRD70 NOSIG RMK QFE768/1025
VFR 11°C / -1°C 150º variable 110º to 190º 8kt >10km - Clouds and Visibility OK 1026 No Significant change ULAA 221230Z 15004MPS 110V190 CAVOK 11/M01 Q1026 R08/CLRD70 NOSIG RMK QFE769/1025
VFR 11°C / 0°C 160º variable 100º to 230º 6kt >10km - Clouds and Visibility OK 1027 No Significant change ULAA 221200Z 16003MPS 100V230 CAVOK 11/M00 Q1027 R08/CLRD70 NOSIG RMK QFE769/1025
VFR 11°C / 0°C 130º variable 100º to 180º 6kt >10km - Clouds and Visibility OK 1027 No Significant change ULAA 221130Z 13003MPS 100V180 CAVOK 11/00 Q1027 R08/CLRD70 NOSIG RMK QFE769/1026
VFR 10°C / 0°C 120º variable 080º to 180º 6kt >10km - Clouds and Visibility OK 1027 No Significant change ULAA 221100Z 12003MPS 080V180 CAVOK 10/M00 Q1027 R08/CLRD70 NOSIG RMK QFE769/1026
VFR 10°C / 0°C 130º variable 080º to 200º 6kt >10km - Clouds and Visibility OK 1027 No Significant change ULAA 221030Z 13003MPS 080V200 CAVOK 10/00 Q1027 R08/CLRD70 NOSIG RMK QFE769/1026
VFR 10°C / 1°C 150º variable 090º to 220º 6kt >10km - Clouds and Visibility OK 1027 No Significant change ULAA 221000Z 15003MPS 090V220 CAVOK 10/01 Q1027 R08/CLRD70 NOSIG RMK QFE770/1026
VFR 9°C / 1°C 150º 6kt >10km - Clouds and Visibility OK 1028 No Significant change ULAA 220930Z 15003MPS CAVOK 09/01 Q1028 R08/CLRD70 NOSIG RMK QFE770/1027
VFR 9°C / 1°C 140º variable 070º to 200º 4kt >10km - Few Clouds 3000ft 1028 No Significant change ULAA 220900Z 14002MPS 070V200 9999 FEW030 09/01 Q1028 R08/CLRD70 NOSIG RMK QFE770/1027
VFR 8°C / 1°C 130º 4kt >10km - Few Clouds 3000ft 1028 No Significant change ULAA 220830Z 13002MPS 9999 FEW030 08/01 Q1028 R08/CLRD70 NOSIG RMK QFE770/1027

VFR

0°C / -1°C

[Više]
Vetar 90º 4kt
Vidljivost >10km
Prognoza -
Oblaci Clouds and Visibility OK
Pritisak 1024
Promena No Significant change
Neobrađeno ULAA 222000Z 09002MPS CAVOK 00/M01 Q1024 R08/CLRD70 NOSIG RMK QFE767/1023

VFR

0°C / -1°C

[Više]
Vetar 100º 4kt
Vidljivost >10km
Prognoza -
Oblaci Clouds and Visibility OK
Pritisak 1024
Promena No Significant change
Neobrađeno ULAA 221930Z 10002MPS CAVOK M00/M01 Q1024 R08/CLRD70 NOSIG RMK QFE767/1023

VFR

0°C / -1°C

[Više]
Vetar 90º 4kt
Vidljivost >10km
Prognoza -
Oblaci Clouds and Visibility OK
Pritisak 1024
Promena No Significant change
Neobrađeno ULAA 221900Z 09002MPS CAVOK 00/M01 Q1024 R08/CLRD70 NOSIG RMK QFE767/1023

VFR

1°C / -1°C

[Više]
Vetar 110º 4kt
Vidljivost >10km
Prognoza -
Oblaci Clouds and Visibility OK
Pritisak 1024
Promena No Significant change
Neobrađeno ULAA 221830Z 11002MPS CAVOK 01/M01 Q1024 R08/CLRD70 NOSIG RMK QFE767/1023

VFR

2°C / 0°C

[Više]
Vetar 130º variable 090º to 150º 4kt
Vidljivost >10km
Prognoza -
Oblaci Clouds and Visibility OK
Pritisak 1025
Promena No Significant change
Neobrađeno ULAA 221800Z 13002MPS 090V150 CAVOK 02/M00 Q1025 R08/CLRD70 NOSIG RMK QFE767/1023

VFR

2°C / 0°C

[Više]
Vetar 120º 4kt
Vidljivost >10km
Prognoza -
Oblaci Clouds and Visibility OK
Pritisak 1025
Promena No Significant change
Neobrađeno ULAA 221730Z 12002MPS CAVOK 02/00 Q1025 R08/CLRD70 NOSIG RMK QFE767/1023

VFR

2°C / 0°C

[Više]
Vetar 100º 4kt
Vidljivost >10km
Prognoza -
Oblaci Clouds and Visibility OK
Pritisak 1025
Promena No Significant change
Neobrađeno ULAA 221700Z 10002MPS CAVOK 02/M00 Q1025 R08/CLRD70 NOSIG RMK QFE768/1024

VFR

2°C / 0°C

[Više]
Vetar 120º 4kt
Vidljivost >10km
Prognoza -
Oblaci Clouds and Visibility OK
Pritisak 1025
Promena No Significant change
Neobrađeno ULAA 221630Z 12002MPS CAVOK 02/00 Q1025 R08/CLRD70 NOSIG RMK QFE768/1024

VFR

3°C / 0°C

[Više]
Vetar 90º 2kt
Vidljivost >10km
Prognoza -
Oblaci Clouds and Visibility OK
Pritisak 1025
Promena No Significant change
Neobrađeno ULAA 221600Z 09001MPS CAVOK 03/M00 Q1025 R08/CLRD70 NOSIG RMK QFE768/1024

VFR

6°C / 0°C

[Više]
Vetar 120º 2kt
Vidljivost >10km
Prognoza -
Oblaci Clouds and Visibility OK
Pritisak 1025
Promena No Significant change
Neobrađeno ULAA 221530Z 12001MPS CAVOK 06/00 Q1025 R26/CLRD70 NOSIG RMK QFE767/1023

VFR

7°C / 0°C

[Više]
Vetar variable 2kt
Vidljivost >10km
Prognoza -
Oblaci Clouds and Visibility OK
Pritisak 1025
Promena No Significant change
Neobrađeno ULAA 221500Z VRB01MPS CAVOK 07/00 Q1025 R26/CLRD70 NOSIG RMK QFE767/1023

VFR

9°C / 0°C

[Više]
Vetar 140º variable 110º to 200º 4kt
Vidljivost >10km
Prognoza -
Oblaci Clouds and Visibility OK
Pritisak 1025
Promena No Significant change
Neobrađeno ULAA 221430Z 14002MPS 110V200 CAVOK 09/M00 Q1025 R26/CLRD70 NOSIG RMK QFE767/1023

VFR

9°C / -1°C

[Više]
Vetar 130º variable 090º to 170º 4kt
Vidljivost >10km
Prognoza -
Oblaci Clouds and Visibility OK
Pritisak 1025
Promena No Significant change
Neobrađeno ULAA 221400Z 13002MPS 090V170 CAVOK 09/M01 Q1025 R08/CLRD70 NOSIG RMK QFE768/1024

VFR

10°C / -1°C

[Više]
Vetar 150º variable 100º to 190º 6kt
Vidljivost >10km
Prognoza -
Oblaci Clouds and Visibility OK
Pritisak 1026
Promena No Significant change
Neobrađeno ULAA 221330Z 15003MPS 100V190 CAVOK 10/M01 Q1026 R08/CLRD70 NOSIG RMK QFE768/1024

VFR

11°C / -1°C

[Više]
Vetar 140º variable 090º to 170º 8kt
Vidljivost >10km
Prognoza -
Oblaci Clouds and Visibility OK
Pritisak 1026
Promena No Significant change
Neobrađeno ULAA 221300Z 14004MPS 090V170 CAVOK 11/M01 Q1026 R08/CLRD70 NOSIG RMK QFE768/1025

VFR

11°C / -1°C

[Više]
Vetar 150º variable 110º to 190º 8kt
Vidljivost >10km
Prognoza -
Oblaci Clouds and Visibility OK
Pritisak 1026
Promena No Significant change
Neobrađeno ULAA 221230Z 15004MPS 110V190 CAVOK 11/M01 Q1026 R08/CLRD70 NOSIG RMK QFE769/1025

VFR

11°C / 0°C

[Više]
Vetar 160º variable 100º to 230º 6kt
Vidljivost >10km
Prognoza -
Oblaci Clouds and Visibility OK
Pritisak 1027
Promena No Significant change
Neobrađeno ULAA 221200Z 16003MPS 100V230 CAVOK 11/M00 Q1027 R08/CLRD70 NOSIG RMK QFE769/1025

VFR

11°C / 0°C

[Više]
Vetar 130º variable 100º to 180º 6kt
Vidljivost >10km
Prognoza -
Oblaci Clouds and Visibility OK
Pritisak 1027
Promena No Significant change
Neobrađeno ULAA 221130Z 13003MPS 100V180 CAVOK 11/00 Q1027 R08/CLRD70 NOSIG RMK QFE769/1026

VFR

10°C / 0°C

[Više]
Vetar 120º variable 080º to 180º 6kt
Vidljivost >10km
Prognoza -
Oblaci Clouds and Visibility OK
Pritisak 1027
Promena No Significant change
Neobrađeno ULAA 221100Z 12003MPS 080V180 CAVOK 10/M00 Q1027 R08/CLRD70 NOSIG RMK QFE769/1026

VFR

10°C / 0°C

[Više]
Vetar 130º variable 080º to 200º 6kt
Vidljivost >10km
Prognoza -
Oblaci Clouds and Visibility OK
Pritisak 1027
Promena No Significant change
Neobrađeno ULAA 221030Z 13003MPS 080V200 CAVOK 10/00 Q1027 R08/CLRD70 NOSIG RMK QFE769/1026

VFR

10°C / 1°C

[Više]
Vetar 150º variable 090º to 220º 6kt
Vidljivost >10km
Prognoza -
Oblaci Clouds and Visibility OK
Pritisak 1027
Promena No Significant change
Neobrađeno ULAA 221000Z 15003MPS 090V220 CAVOK 10/01 Q1027 R08/CLRD70 NOSIG RMK QFE770/1026

VFR

9°C / 1°C

[Više]
Vetar 150º 6kt
Vidljivost >10km
Prognoza -
Oblaci Clouds and Visibility OK
Pritisak 1028
Promena No Significant change
Neobrađeno ULAA 220930Z 15003MPS CAVOK 09/01 Q1028 R08/CLRD70 NOSIG RMK QFE770/1027

VFR

9°C / 1°C

[Više]
Vetar 140º variable 070º to 200º 4kt
Vidljivost >10km
Prognoza -
Oblaci Few Clouds 3000ft
Pritisak 1028
Promena No Significant change
Neobrađeno ULAA 220900Z 14002MPS 070V200 9999 FEW030 09/01 Q1028 R08/CLRD70 NOSIG RMK QFE770/1027

VFR

8°C / 1°C

[Više]
Vetar 130º 4kt
Vidljivost >10km
Prognoza -
Oblaci Few Clouds 3000ft
Pritisak 1028
Promena No Significant change
Neobrađeno ULAA 220830Z 13002MPS 9999 FEW030 08/01 Q1028 R08/CLRD70 NOSIG RMK QFE770/1027

TAF za 64.6°S 40.72°I (ULAA)

From till


From till Wind 120º 6kt. Visibility 10km or more. Scattered Clouds 1600ft.
Temporarly from till Wind variable 2kt. Visibility 402.335m. freezing Fog . Few Clouds 200ft.
Temporarly from till Wind 150º 8kt. Gust 19kt.

Neobrađeno: TAF ULAA 221700Z 2218/2318 12003MPS 9999 SCT016 TEMPO 2218/2307 VRB01MPS 0400 FZFG FEW002 TEMPO 2307/2318 15004G10MPS

Trenutni satelitski snimci i slike kiše za 64.6°S 40.72°I

Marker lokacije postavljen je na 64.6°S 40.72°I. [Više]

Satelitski snimci u realnom vremenu kombinuju vidljivu svetlost tokom dana sa infracrvenim zračenjem tokom noći. Noću slika nije tamna jer infracrveno zračenje može otkriti temperaturne razlike. Nažalost, niski oblaci i magla teško se mogu razlikovati od temperature zemlje tako da mogu biti skoro nevidljivi tokom noći. Meteosat satelitski snimci za Evropu se ažuriraju u realnom vremenu na svakih 5 minuta. Slnimci GOES-16/GOES-17 (Severna i Južna Amerika) and Himawari (Azia) ažuriraju se na svakih 10 minuta.

Autorsko pravo 2021 EUMETSAT / meteoblue. / Autorsko pravo 2021 meteoblue

Radar i padavine kratka prognoza za 64.6°S 40.72°I

Rominjati
Svjetlo
Umjereno
Teška
Vrlo teško
Zdravo

Marker lokacije postavljen je na 64.6°S 40.72°I. Ova animacija prikazuje radar padavina za poslednji sat, kao i 1h prognozu. Пљусак кише или слаб снег може бити невидљив за радар. Интензитет падавина је кодиран у боји, у распону од светло плаве до наранџасте.